Regional Weather Roundup
Issued by NWS

Home | Current Version | Previous Version | Graphics & Text | Print | Product List | Glossary On
Versions: 1 2 3 4 5 6 7 8 9 10 11 12 13 14 15 16 17 18 19 20 21 22 23 24 25 26 27 28 29 30 31 32 33 34 35 36 37 38 39 40 41 42 43 44 45 46 47 48 49 50
976
ASUS45 KABQ 291510
RWRNM
NEW MEXICO REGIONAL WEATHER ROUNDUP
NATIONAL WEATHER SERVICE ALBUQUERQUE NM
900 AM MDT FRI APR 29 2016

NOTE: "FAIR" MEANS FEW OR NO CLOUDS BELOW 12,000 FEET AGL WITH NO
       SIGNIFICANT WEATHER OR OBSTRUCTIONS TO VISION.

      THIS PRODUCT IS RELEASED AS TWO VERSIONS.  ONE VERSION NEAR
      THE TOP OF THE HOUR CONTAINING PRELIMINARY DATA FROM ALBUQUERQUE
      AND OTHER STATIONS.  A FINAL VERSION WITH ADDITIONAL DATA IS
      ISSUED ABOUT 10 MINUTES AFTER THE HOUR.

NMZ501-503-504-510>518-291600-
NORTHWEST PLATEAU/NORTHCENTRAL MOUNTAINS

CITY           SKY/WX    TMP DP  RH WIND       PRES   REMARKS
FARMINGTON     FAIR      45  34  65 SE3       29.84S
LOS ALAMOS     FAIR      36  36 100 S5        29.87S WCI  32
SANTA FE       FAIR      42  37  82 N10       29.86R
TAOS           PTSUNNY   34  28  80 E9        29.87F WCI  26
ANGEL FIRE     PTSUNNY   31  29  92 N6        29.88S WCI  25

$$
NMZ402-403-502-505>509-291600-
WESTCENTRAL MOUNTAINS/SOUTHWEST MOUNTAINS

CITY           SKY/WX    TMP DP  RH WIND       PRES   REMARKS
GALLUP         FAIR      42  27  55 SW15      29.90R
GRANTS         CLOUDY    43  27  54 CALM      29.90S
SILVER CITY      N/A     50  21  32 NW21G28   29.95R

$$
NMZ407-409-411-412-291600-
SOUTHERN DESERTS

CITY           SKY/WX    TMP DP  RH WIND       PRES   REMARKS
LORDSBURG      FAIR      52  25  35 NW8       29.95R
DEMING         FAIR      55  22  27 W12       29.93R
LAS CRUCES       N/A     56  20  24 W15G21    29.92
HOLLOMAN AFB   FAIR      60  17  18 W14       29.86R
ALAMOGORDO     FAIR      61  12  15 W15G21    29.87S
T OR C         FAIR      56  17  21 NW12G17   29.88R

$$
NMZ519>523-291600-
CENTRAL VALLEYS/CENTRAL HIGHLANDS

CITY           SKY/WX    TMP DP  RH WIND       PRES   REMARKS
ALBUQUERQUE    FAIR      46  39  76 S5        29.87R
DOUBLE EAGLE   MOSUNNY   46  34  61 W10       29.88R
MORIARTY ARPT  FAIR      45  35  67 CALM      29.87S
CLINES CORNERS FAIR      43  35  73 W9        29.84S
BELEN          FAIR      50  31  49 SW5       29.87F
SOCORRO        FAIR      55  20  26 W17G24    29.86F

$$
NMZ524>526-539-540-291600-
SOUTHCENTRAL MOUNTAINS

CITY           SKY/WX    TMP DP  RH WIND       PRES   REMARKS
RUIDOSO          N/A     50  10  20 W18       29.89S

$$
NMZ527>531-291600-
NORTHEAST HIGHLANDS/NORTHEAST PLAINS

CITY           SKY/WX    TMP DP  RH WIND       PRES   REMARKS
LAS VEGAS      CLOUDY    35  34  96 N8        29.85F WCI  29
RATON          SNOW      33  31  92 NW9       29.87S VSB 1/2 WCI  25
CLAYTON        HVY RAIN  41  39  93 NE21      29.83F FOG

$$
NMZ532>537-291600-
EASTCENTRAL PLAINS

CITY           SKY/WX    TMP DP  RH WIND       PRES   REMARKS
TUCUMCARI      CLOUDY    49  44  83 N10       29.83R
CANNON AFB     CLOUDY    50  46  87 N20       29.80R
CLOVIS AIRPORT CLOUDY    48  45  87 N18       29.82R

$$
NMZ028-029-538-291600-
SOUTHEAST PLAINS

CITY           SKY/WX    TMP DP  RH WIND       PRES   REMARKS
ROSWELL        FAIR      63  45  51 NE8       29.80R
ARTESIA        FAIR      68  23  18 W22       29.81S
CARLSBAD       FAIR      70  27  20 W18G26    29.81R
HOBBS          SUNNY     68  37  32 W14G21    29.80R


$$




USA.gov is the U.S. government's official web portal to all federal, state and local government web resources and services.